Location: Cassano d�Adda
(45.5333°N, 9.5167°E)
Time: 22:50:51
(UTC+00:00)

Cosmos 2237 Rocket - Pass Details

Date: 08 December 2019
Orbit: 836 x 849 km, 71.0° (Epoch: 18 January)

Event Time Altitude Azimuth Distance (km) Brightness Sun altitude
Rises 16:17:21 0° 173° (S) 3,397 5.6 -6.8°
Reaches altitude 10° 16:20:03 10° 163° (SSE) 2,466 4.7 -7.2°
Maximum altitude 16:24:54 30° 104° (ESE) 1,486 3.1 -8.0°
Drops below altitude 10° 16:29:45 10° 45° (NE) 2,479 4.1 -8.8°
Enters shadow 16:30:11 - 43° (NE) 2,626 4.2 -8.8°
